Shawano, WI

11:19 PM CDT on March 28, 2017 (GMT -0500)
Shawano

Weather History for KEZS - September, 2012

Change the Weather History Date:

Friday, September 7, 2012

  Actual Average (KCLI) Record (KCLI)
Temperature  
Mean Temperature 60 °F -  
Max Temperature 66 °F 76 °F 93 °F (1960)
Min Temperature 53 °F 50 °F 34 °F (1955)
Degree Days  
Heating Degree Days 6    
Growing Degree Days 10 (Base 50)    
Moisture  
Dew Point 54 °F    
Average Humidity 80    
Maximum Humidity 94    
Minimum Humidity 64    
Precipitation  
Precipitation 0.13 in - - ()
Sea Level Pressure  
Sea Level Pressure 29.90 in    
Wind  
Wind Speed 3 mph (NW)    
Max Wind Speed 10 mph    
Max Gust Speed 16 mph    
Visibility 10 miles    
Events Rain    
Averages and records for this station are not official NWS values.
T = Trace of Precipitation, MM = Missing Value Source: NWS Daily Summary

Daily Weather History Graph

Daily Weather History Graph

Search for Another Location

Airport or City:

Trip Planner

Search our weather history database for the weather conditions in past years. The results will help you decide how hot, cold, wet, or windy it might be!

Date:

Astronomy

Sep. 07, 2012 Rise Set
Actual Time 6:24 AM CDT 7:19 PM CDT
Civil Twilight 5:54 AM CDT 7:48 PM CDT
Nautical Twilight 5:18 AM CDT 8:24 PM CDT
Astronomical Twilight 4:41 AM CDT 9:01 PM CDT
Moon 10:56 PM CDT (9/7) 1:34 PM CDT (9/7)
Length of Visible Light 13h 54m
Length of Day
12h 54m
Waning Gibbous, 58% of the Moon is Illuminated
Sep 7
Waning Gibbous
Sep 8
Last Quarter
Sep 15
New
Sep 22
First Quarter
Sep 29
Full

Hourly Weather History & Observations

Time (CDT) Temp. Dew Point Humidity Pressure Visibility Wind Dir Wind Speed Gust Speed Precip Events Conditions
12:15 AM 66.2 °F 53.6 °F 64% 29.92 in 10.0 mi West 3.5 mph - N/A   Overcast
12:35 AM 64.4 °F 53.6 °F 68% 29.91 in 10.0 mi Calm Calm - N/A   Overcast
1:15 AM 64.4 °F 53.6 °F 68% 29.90 in 10.0 mi Calm Calm - N/A   Scattered Clouds
1:35 AM 64.4 °F 51.8 °F 64% 29.91 in 10.0 mi Calm Calm - N/A   Clear
1:55 AM 62.6 °F 51.8 °F 68% 29.91 in 10.0 mi Calm Calm - N/A   Clear
2:15 AM 62.6 °F 53.6 °F 72% 29.91 in 10.0 mi Calm Calm - N/A   Scattered Clouds
2:35 AM 60.8 °F 53.6 °F 77% 29.91 in 10.0 mi Calm Calm - N/A   Clear
2:55 AM 62.6 °F 53.6 °F 72% 29.91 in 10.0 mi North 8.1 mph - N/A   Clear
3:15 AM 62.6 °F 53.6 °F 72% 29.90 in 10.0 mi NE 10.4 mph - N/A   Clear
3:35 AM 62.6 °F 53.6 °F 72% 29.89 in 10.0 mi NE 10.4 mph 16.1 mph N/A   Scattered Clouds
3:55 AM 62.6 °F 53.6 °F 72% 29.88 in 10.0 mi NE 10.4 mph 16.1 mph N/A   Scattered Clouds
4:15 AM 62.6 °F 53.6 °F 72% 29.90 in 10.0 mi NE 8.1 mph - N/A   Mostly Cloudy
4:35 AM 60.8 °F 53.6 °F 77% 29.90 in 10.0 mi NE 8.1 mph - N/A   Overcast
4:55 AM 60.8 °F 55.4 °F 82% 29.88 in 10.0 mi NE 9.2 mph - N/A   Overcast
5:15 AM 60.8 °F 55.4 °F 82% 29.89 in 10.0 mi ENE 6.9 mph - N/A   Mostly Cloudy
5:35 AM 60.8 °F 55.4 °F 82% 29.90 in 10.0 mi NE 4.6 mph - N/A   Mostly Cloudy
5:55 AM 60.8 °F 55.4 °F 82% 29.92 in 10.0 mi NW 3.5 mph - N/A   Overcast
6:15 AM 60.8 °F 55.4 °F 82% 29.93 in 10.0 mi West 3.5 mph - N/A   Light Drizzle
6:35 AM 59.0 °F 55.4 °F 88% 29.95 in 10.0 mi WNW 3.5 mph - N/A   Light Drizzle
6:55 AM 59.0 °F 55.4 °F 88% 29.93 in 10.0 mi Calm Calm - N/A   Overcast
7:15 AM 59.0 °F 55.4 °F 88% 29.93 in 10.0 mi Calm Calm - N/A   Overcast
7:35 AM 60.8 °F 55.4 °F 82% 29.93 in 10.0 mi Calm Calm - N/A   Overcast
7:55 AM 60.8 °F 55.4 °F 82% 29.93 in 10.0 mi Calm Calm - N/A   Overcast
8:15 AM 60.8 °F 55.4 °F 82% 29.93 in 10.0 mi South 3.5 mph - N/A   Overcast
8:35 AM 60.8 °F 55.4 °F 82% 29.93 in 10.0 mi Calm Calm - N/A   Overcast
8:55 AM 60.8 °F 55.4 °F 82% 29.94 in 10.0 mi Calm Calm - N/A   Overcast
9:15 AM 60.8 °F 55.4 °F 82% 29.94 in 10.0 mi Calm Calm - N/A Rain Light Rain
9:35 AM 60.8 °F 55.4 °F 82% 29.94 in 10.0 mi NW 3.5 mph - N/A   Overcast
9:55 AM 60.8 °F 57.2 °F 88% 29.95 in 5.0 mi NW 3.5 mph - 0.01 in Rain Rain
10:15 AM 59.0 °F 57.2 °F 94% 29.95 in 7.0 mi Calm Calm - 0.02 in Rain Light Rain
10:35 AM 60.8 °F 57.2 °F 88% 29.93 in 10.0 mi Calm Calm - 0.04 in   Drizzle
10:55 AM 60.8 °F 57.2 °F 88% 29.93 in 10.0 mi West 3.5 mph - 0.06 in   Light Drizzle
11:15 AM 60.8 °F 59.0 °F 94% 29.91 in 10.0 mi Calm Calm - 0.01 in   Light Drizzle
11:35 AM 60.8 °F 57.2 °F 88% 29.91 in 10.0 mi Calm Calm - 0.01 in   Drizzle
11:55 AM 60.8 °F 57.2 °F 88% 29.90 in 10.0 mi Calm Calm - 0.02 in Rain Rain
12:15 PM 60.8 °F 55.4 °F 82% 29.88 in 10.0 mi Calm Calm - 0.01 in   Drizzle
12:35 PM 60.8 °F 53.6 °F 77% 29.88 in 10.0 mi NW 3.5 mph - 0.01 in   Overcast
12:55 PM 60.8 °F 55.4 °F 82% 29.89 in 10.0 mi NW 3.5 mph - 0.02 in Rain Light Rain
1:15 PM 59.0 °F 55.4 °F 88% 29.88 in 10.0 mi WNW 3.5 mph - 0.01 in Rain Light Rain
1:35 PM 59.0 °F 55.4 °F 88% 29.89 in 10.0 mi West 3.5 mph - 0.02 in Rain Light Rain
1:55 PM 60.8 °F 53.6 °F 77% 29.88 in 10.0 mi West 4.6 mph - 0.02 in Rain Light Rain
2:15 PM 60.8 °F 53.6 °F 77% 29.88 in 10.0 mi West 5.8 mph - N/A   Mostly Cloudy
2:35 PM 60.8 °F 55.4 °F 82% 29.87 in 10.0 mi SW 4.6 mph - N/A   Overcast
2:55 PM 62.6 °F 55.4 °F 77% 29.86 in 10.0 mi West 3.5 mph - N/A   Mostly Cloudy
3:15 PM 62.6 °F 55.4 °F 77% 29.86 in 10.0 mi WSW 4.6 mph - N/A   Mostly Cloudy
3:35 PM 62.6 °F 55.4 °F 77% 29.86 in 10.0 mi West 5.8 mph - N/A   Mostly Cloudy
3:55 PM 64.4 °F 55.4 °F 73% 29.85 in 10.0 mi West 5.8 mph - N/A   Scattered Clouds
4:15 PM 64.4 °F 55.4 °F 73% 29.84 in 10.0 mi WSW 5.8 mph - N/A   Scattered Clouds
4:55 PM 64.4 °F 53.6 °F 68% 29.85 in 10.0 mi West 4.6 mph - N/A   Mostly Cloudy
5:15 PM 60.8 °F 53.6 °F 77% 29.85 in 10.0 mi WSW 8.1 mph - N/A   Drizzle
5:35 PM 60.8 °F 53.6 °F 77% 29.86 in 10.0 mi NW 5.8 mph - N/A   Mostly Cloudy
5:55 PM 60.8 °F 53.6 °F 77% 29.87 in 10.0 mi WNW 3.5 mph - N/A   Overcast
6:15 PM 60.8 °F 51.8 °F 72% 29.87 in 10.0 mi NW 4.6 mph - N/A Rain Light Rain
6:35 PM 60.8 °F 51.8 °F 72% 29.87 in 10.0 mi NNW 5.8 mph - N/A   Overcast
6:55 PM 60.8 °F 51.8 °F 72% 29.87 in 10.0 mi NNW 5.8 mph - N/A   Overcast
7:15 PM 59.0 °F 51.8 °F 77% 29.87 in 10.0 mi NW 3.5 mph - N/A   Scattered Clouds
7:35 PM 57.2 °F 51.8 °F 82% 29.87 in 10.0 mi Calm Calm - N/A   Clear
7:55 PM 57.2 °F 51.8 °F 82% 29.88 in 10.0 mi Calm Calm - N/A   Clear
8:15 PM 55.4 °F 51.8 °F 88% 29.88 in 10.0 mi NW 3.5 mph - N/A   Scattered Clouds
8:35 PM 55.4 °F 50.0 °F 82% 29.88 in 10.0 mi NNW 4.6 mph - N/A   Mostly Cloudy
8:55 PM 55.4 °F 50.0 °F 82% 29.87 in 10.0 mi NW 5.8 mph - N/A   Mostly Cloudy
9:15 PM 55.4 °F 50.0 °F 82% 29.88 in 10.0 mi NW 5.8 mph - N/A   Scattered Clouds
9:35 PM 55.4 °F 50.0 °F 82% 29.89 in 10.0 mi NW 5.8 mph - N/A   Mostly Cloudy
9:55 PM 55.4 °F 50.0 °F 82% 29.89 in 10.0 mi NW 6.9 mph - N/A   Overcast
10:55 PM 53.6 °F 50.0 °F 88% 29.89 in 10.0 mi WNW 4.6 mph - N/A   Scattered Clouds
11:15 PM 53.6 °F 50.0 °F 88% 29.89 in 10.0 mi WNW 4.6 mph - N/A   Scattered Clouds
11:35 PM 53.6 °F 50.0 °F 88% 29.89 in 10.0 mi WNW 5.8 mph - N/A   Clear
11:55 PM 53.6 °F 48.2 °F 82% 29.89 in 10.0 mi WNW 5.8 mph - N/A   Clear